SCP
0 0 0 0 0 0 0 0 0 0 0 0 0 0 0 0 0 0 0 0 1 1 1 1 1 1 1 1 1 1 1 1 0 0 0 0 1 1
0 0 0 0 0 0 0 0 0 0 0 0 0 0 0 0 0 0 0 0 0 0 0 1 1 1 1 1 1 1 1 1 0 0 0 0 1 1
0 0 0 0 0 0 0 0 0 0 0 0 0 0 0 0 0 0 0 0 0 0 0 0 0 1 1 1 1 1 1 0 0 0 0 0 1 1
0 0 0 0 0 0 0 0 0 0 0 0 0 0 0 0 0 0 0 0 0 0 0 0 0 0 1 1 1 1 1 0 0 0 0 0 0 1
0 0 0 0 0 0 0 0 0 0 0 0 0 0 0 0 0 0 0 0 0 0 0 0 0 0 0 0 0 0 0 0 0 0 0 0 0 0
0 0 0 0 0 0 0 0 0 0 0 0 0 0 0 0 0 0 0 0 0 0 0 0 0 0 0 0 0 0 0 0 0 0 0 0 0 0
0 0 0 0 0 0 0 0 0 0 0 0 0 0 0 0 0 0 0 0 0 0 0 0 0 0 0 0 0 0 0 0 0 0 0 0 0 0
0 0 0 0 0 0 0 0 0 0 0 0 0 0 0 0 0 0 0 0 0 0 0 0 0 0 0 0 0 0 0 0 0 0 0 0 0 0
0 0 0 0 0 0 0 0 0 0 0 0 0 0 0 0 0 0 0 0 0 0 0 0 0 0 0 0 0 0 0 0 0 0 0 0 0 0
0 0 0 0 0 0 0 0 0 0 0 0 0 0 0 0 0 0 0 0 0 0 0 0 0 0 0 0 0 0 0 0 0 0 0 0 0 0
0 0 0 0 0 0 0 0 0 0 0 0 0 0 0 0 0 0 0 0 0 0 0 0 0 0 0 0 0 0 0 0 0 0 0 0 0 0
0 0 0 0 0 0 0 0 0 0 0 0 0 0 0 0 0 0 0 0 0 0 0 0 0 0 0 0 0 0 0 0 0 0 0 0 0 0
0 0 0 0 0 0 0 0 0 0 0 0 0 0 0 0 0 0 0 0 0 0 0 0 0 0 0 0 0 0 0 0 0 0 0 0 0 0
0 0 0 0 0 0 0 0 0 0 0 0 0 0 0 0 0 0 0 0 0 0 0 0 0 0 0 0 0 0 0 1 1 0 0 0 0 0
0 0 0 0 0 0 0 0 0 0 0 0 0 0 0 0 0 0 0 0 0 0 0 0 0 0 0 0 0 0 0 1 1 1 1 0 0 0
0 0 0 0 0 0 0 0 0 0 0 0 0 0 0 0 0 0 0 0 0 0 0 0 0 0 0 0 0 0 0 1 1 1 1 1 1 1
0 0 0 0 0 0 0 0 0 0 0 0 0 0 0 0 0 0 0 0 0 0 0 0 0 0 0 0 0 0 0 0 1 1 1 1 1 1
0 0 0 0 0 0 0 0 0 0 0 0 0 0 0 0 0 0 0 0 0 0 0 0 0 0 0 0 0 0 0 0 1 1 1 1 1 1
0 0 0 0 0 0 0 0 0 0 0 0 0 0 0 0 0 0 0 0 0 0 0 0 0 0 0 0 0 0 0 0 1 1 1 1 1 1
0 0 0 0 0 0 0 0 0 0 0 0 0 0 0 0 0 0 0 0 0 0 0 0 0 0 0 0 0 0 0 0 0 1 1 1 1 0
0 0 0 0 0 0 0 0 0 0 0 0 0 0 0 0 0 0 0 0 0 0 0 0 0 0 0 0 0 0 0 0 0 0 1 1 1 0
0 0 0 0 0 0 0 0 0 0 0 0 0 0 0 0 0 0 0 0 0 0 0 0 0 0 0 0 0 0 0 0 0 0 0 0 0 0
0 0 0 0 0 0 0 0 0 0 0 0 0 0 0 0 0 0 0 0 0 0 0 0 0 0 0 0 0 0 0 0 0 0 0 0 0 0
Wind_Speed
9 10 10 9 8 8 8 8 10 15 15 12 9 7 8 8 15 12 10 19 23 23 21 20 19 20 20 21 22 22 22 21 20 18 18 17 17 21
9 11 12 10 9 9 9 9 9 12 15 11 11 10 11 12 18 12 11 22 22 22 22 21 20 21 21 22 23 23 22 21 21 20 19 18 17 18
12 12 14 13 11 10 9 9 10 10 14 14 11 10 11 11 12 10 10 10 11 20 21 21 22 23 23 23 24 23 23 22 22 21 20 19 17 17
14 14 15 13 13 11 10 11 10 11 13 17 13 10 10 10 11 10 10 10 9 18 22 22 23 24 25 25 24 24 23 22 22 21 21 19 18 17
15 15 15 14 13 11 11 11 11 12 11 13 13 10 8 8 9 10 10 9 11 14 19 20 22 24 25 25 25 24 24 23 22 21 20 18 17 17
13 13 13 12 13 12 12 12 12 11 11 10 11 10 9 7 6 8 10 7 9 10 14 16 19 22 22 24 25 25 24 22 22 21 19 17 15 15
9 9 10 14 18 15 11 9 9 9 9 9 11 10 9 6 7 7 10 9 9 9 7 7 8 8 10 16 21 22 22 22 21 21 20 17 14 15
8 8 10 12 16 21 24 23 19 12 10 10 10 10 10 8 8 8 9 9 8 3 4 8 7 9 8 8 16 20 21 21 21 20 19 17 15 15
7 8 9 11 16 10 17 22 17 20 20 13 12 12 12 10 10 11 10 10 10 6 7 10 6 8 8 10 19 20 20 19 19 19 18 17 15 15
7 8 9 10 13 16 12 8 9 11 15 11 10 12 12 12 11 12 11 11 10 8 7 8 6 6 8 7 16 20 20 19 18 18 18 17 15 14
7 8 10 10 20 24 10 8 10 10 13 17 20 18 20 19 14 7 6 7 8 6 5 6 5 5 6 7 11 18 20 19 19 19 18 17 15 13
6 7 14 17 22 21 9 7 11 10 7 9 12 14 12 13 16 7 5 6 6 6 4 4 4 4 5 4 6 7 10 16 19 19 18 17 15 10
6 6 8 20 21 20 17 9 15 14 7 9 9 8 8 7 7 7 7 7 8 8 4 3 3 3 5 4 3 6 7 7 9 12 15 17 16 13
6 6 9 19 20 20 15 17 21 17 8 9 9 8 8 7 7 7 8 9 11 12 8 5 5 4 4 5 5 4 6 7 8 8 8 12 15 16
5 12 15 17 16 12 16 20 16 9 9 9 10 9 8 8 8 7 7 8 10 12 13 13 12 9 7 7 6 4 4 6 8 8 9 10 10 10
5 9 13 14 13 13 13 11 8 9 9 9 10 9 8 8 7 7 6 5 5 6 9 13 14 13 10 11 9 8 5 5 7 8 9 8 8 8
4 3 5 6 7 7 7 7 7 8 9 9 9 10 9 9 8 7 6 5 4 4 4 4 8 10 12 9 8 9 7 6 7 9 9 9 8 9
4 3 5 6 8 8 9 9 8 8 9 9 9 9 10 9 9 8 7 5 5 5 5 4 3 4 5 8 11 9 7 6 6 9 9 9 10 9
2 3 4 6 7 7 7 7 7 8 8 8 9 9 10 9 9 9 8 7 6 5 5 4 3 3 5 5 6 8 7 6 7 9 9 7 9 11
2 3 4 6 7 7 7 7 7 8 7 8 8 9 9 9 9 9 8 9 8 6 5 4 3 3 4 3 3 3 4 5 6 9 7 5 5 10
3 3 4 5 6 6 7 7 7 7 8 8 8 9 9 9 9 9 9 13 9 6 6 5 6 9 5 3 3 2 2 2 4 6 7 9 9 9
3 4 4 5 6 6 6 6 6 6 7 7 8 8 8 8 10 11 10 9 8 7 7 7 7 4 2 2 2 2 0 1 2 6 3 5 8 10
3 4 4 5 5 5 5 6 6 6 6 7 8 8 8 9 9 9 10 9 9 9 8 7 6 3 1 1 1 1 2 1 2 5 3 5 13 19
Wind_Direction
266 267 266 268 263 260 260 261 276 293 295 297 294 283 291 292 296 298 297 299 297 292 289 285 280 273 269 269 269 272 275 279 281 283 281 280 266 235
268 267 268 268 265 263 259 259 258 270 283 288 288 288 290 293 297 302 298 299 299 296 289 284 279 273 268 265 264 266 269 272 275 276 277 273 270 247
273 271 272 272 271 267 262 261 262 263 275 283 283 283 282 284 291 291 288 285 287 290 286 280 275 271 268 265 262 262 263 266 269 271 272 270 267 256
276 276 275 276 273 271 265 263 265 265 269 280 284 284 279 281 284 286 292 293 289 288 284 278 272 267 264 261 259 259 258 260 264 267 268 269 265 264
275 276 276 275 274 269 264 265 267 270 271 277 285 285 280 277 282 285 286 283 285 284 283 278 272 267 262 259 255 255 254 252 255 260 266 267 265 261
273 271 271 272 272 268 266 265 267 271 275 279 284 286 283 275 273 287 292 285 284 286 281 274 270 268 263 258 254 250 249 250 252 256 257 258 260 255
276 271 273 284 286 285 280 273 272 275 282 284 286 287 286 286 282 282 287 292 286 271 273 276 278 275 269 262 256 250 246 244 246 250 253 253 256 249
281 281 284 290 293 299 301 299 296 294 294 289 289 287 286 281 279 277 280 285 287 280 305 292 282 273 263 252 251 250 245 240 240 243 247 248 249 244
282 286 296 297 306 289 289 294 294 296 298 295 290 286 284 280 275 274 267 264 265 272 293 285 267 265 258 252 249 244 243 239 236 237 239 242 244 239
278 279 283 285 289 290 282 274 264 273 285 286 276 277 277 272 262 262 264 266 266 261 246 266 267 260 261 250 248 243 239 236 233 232 233 235 237 234
280 284 295 289 298 312 320 297 291 286 295 301 303 303 303 304 299 284 270 269 276 270 227 242 264 267 258 247 240 238 235 232 230 227 228 228 226 226
286 290 310 314 319 331 330 312 306 302 300 306 306 305 301 296 297 287 265 262 268 274 242 252 270 283 277 242 215 217 225 228 224 223 224 223 215 214
305 306 308 320 333 338 337 320 318 332 326 309 303 299 294 285 277 263 243 237 241 247 260 302 294 293 284 294 256 211 205 207 212 218 219 217 208 203
304 305 310 329 340 340 336 332 339 339 320 314 313 311 308 301 290 276 257 240 235 241 245 243 262 277 299 296 277 231 201 198 198 202 205 207 207 206
307 323 333 338 340 334 331 340 343 329 321 323 319 315 310 300 296 289 274 254 245 240 239 234 236 246 249 259 278 272 217 200 196 195 196 198 195 192
319 326 335 337 338 334 335 333 328 325 330 324 317 315 313 312 310 308 300 289 268 254 234 227 225 228 238 245 254 262 250 210 193 195 193 192 188 190
332 324 327 331 333 329 327 327 328 330 332 327 324 325 325 324 322 321 312 304 280 280 272 234 224 226 233 240 245 247 240 225 198 190 189 186 189 188
358 329 331 331 330 330 329 328 329 334 334 330 329 329 328 327 325 325 323 316 304 289 281 270 244 219 218 232 231 243 244 224 200 187 184 182 183 180
349 317 321 323 322 323 323 323 324 327 328 329 330 330 330 329 329 330 331 327 318 304 290 280 257 231 221 228 226 222 224 212 192 185 183 178 179 172
298 303 312 316 318 320 322 323 323 326 331 331 331 332 332 331 332 333 331 329 324 315 305 288 266 257 235 231 244 247 241 208 191 182 172 160 147 138
294 300 304 311 315 317 319 320 321 323 328 330 330 333 333 333 332 332 330 331 332 320 312 298 281 285 266 239 234 242 279 299 197 176 164 160 150 145
281 293 302 308 313 314 317 320 323 324 329 330 330 332 333 333 333 333 334 332 329 322 308 299 297 289 228 204 199 180 154 10 84 104 119 164 157 156
272 288 298 307 311 312 314 320 323 323 327 330 330 332 334 336 335 334 335 335 333 333 330 327 328 331 353 27 112 111 100 111 113 102 61 93 110 111